Temperature
19 19 19 19 19 19 19 19 19 19 19 19 19 19 18 18 18 18 18 18 19 18 18 18 18 18 18 18 18 18 18 18 18 18 18 18 18 18 18 18 18 17 18
19 19 19 19 19 19 19 19 19 19 19 19 19 19 18 18 18 18 18 18 18 18 18 18 18 18 18 18 18 18 18 18 18 18 18 18 18 18 18 18 18 17 18
19 19 18 19 19 19 19 19 19 19 19 19 19 19 18 18 18 18 18 18 18 18 18 18 18 18 18 18 18 18 18 18 18 18 18 17 18 18 18 18 18 18 18
19 19 18 19 19 19 19 19 19 18 18 19 19 19 18 18 18 18 18 18 18 18 18 18 18 18 18 18 18 18 18 18 18 18 18 18 17 18 18 17 17 17 17
19 19 18 18 19 19 19 18 19 18 18 19 19 19 19 18 18 18 18 18 18 18 18 18 18 18 18 18 18 18 18 18 18 18 18 17 17 18 18 17 17 17 17
19 19 18 19 19 18 19 18 19 18 18 18 18 18 18 18 18 18 18 18 18 18 18 18 18 18 18 18 18 18 18 18 18 18 17 17 17 17 17 17 17 17 17
19 19 18 19 19 19 18 18 18 18 19 18 18 18 18 18 18 18 18 18 18 18 18 18 18 18 18 18 18 18 18 18 18 18 17 17 17 18 17 17 17 17 17
19 19 18 19 19 19 19 19 19 19 19 19 18 18 18 18 18 18 18 18 18 18 18 18 18 18 18 18 18 18 18 18 17 17 17 17 18 17 17 17 17 17 17
19 19 19 18 19 19 19 19 19 19 19 19 19 18 18 18 18 18 18 18 18 18 18 18 18 18 18 18 18 18 18 18 18 17 17 17 18 17 17 17 17 17 17
19 19 19 19 19 19 18 19 19 19 19 19 19 18 18 18 18 18 18 18 18 18 18 18 18 18 18 18 18 18 18 18 18 18 18 17 17 17 17 17 17 17 17
19 19 19 19 19 19 18 18 18 18 18 18 18 18 18 18 18 18 18 18 18 18 18 18 18 18 18 18 18 18 18 18 18 18 17 17 17 17 17 17 17 17 17
19 19 18 19 19 19 18 18 18 18 18 18 18 18 18 18 18 18 18 18 18 18 18 18 18 18 18 17 17 18 18 18 18 17 17 18 17 17 17 17 17 17 17
19 19 19 18 18 19 18 18 18 18 18 18 18 18 18 18 18 18 18 18 18 18 18 18 18 17 17 17 18 17 17 18 18 17 17 17 17 17 17 17 17 17 17
19 19 19 18 18 18 18 18 18 18 18 18 18 18 18 18 18 18 18 18 18 18 18 18 17 17 17 17 17 17 17 18 18 17 17 17 17 17 17 17 17 17 17
19 19 19 18 18 18 18 18 18 18 18 18 18 18 18 18 18 18 18 18 18 18 18 18 18 17 17 17 18 17 17 17 17 17 17 17 17 17 17 17 17 17 17
19 19 19 18 18 18 18 18 18 18 18 18 18 18 18 18 18 18 18 18 18 18 18 18 17 17 17 17 17 17 17 17 17 17 17 17 17 17 17 17 17 17 17
19 19 18 18 18 18 18 18 18 18 18 18 18 18 18 18 18 18 18 18 18 18 18 18 17 18 18 18 17 17 17 17 17 17 17 17 17 17 17 17 17 17 17
19 19 19 19 18 18 18 18 18 18 18 18 18 18 18 18 18 18 18 18 18 18 18 18 18 18 18 18 17 17 17 17 17 17 17 17 17 17 17 17 17 17 17
19 19 19 19 19 19 18 18 18 18 18 18 18 18 18 18 18 18 18 18 18 18 18 18 18 18 18 17 17 17 17 17 17 17 17 17 17 17 17 17 17 17 17
19 19 19 19 19 19 19 19 18 18 18 18 18 18 18 18 18 18 18 18 18 18 18 18 17 17 17 18 18 18 18 17 17 17 17 17 17 17 16 16 16 16 17
19 19 19 19 19 19 19 19 18 18 18 18 18 18 18 18 18 18 18 18 18 18 18 18 18 18 18 18 18 18 18 18 18 17 17 17 17 17 16 16 16 16 16
20 19 19 19 19 19 19 19 19 18 18 18 18 18 18 18 18 18 18 18 18 18 18 17 17 18 18 18 18 18 18 18 18 18 17 17 17 17 16 16 16 16 16
20 20 20 19 19 19 19 19 19 19 18 18 18 18 18 18 18 18 18 18 18 18 18 18 17 17 18 18 18 18 19 19 18 18 17 17 17 17 16 16 16 16 16
20 20 20 20 20 19 19 19 19 19 19 19 18 18 18 18 18 18 18 18 18 18 18 18 17 17 17 18 18 18 18 18 18 18 18 17 17 16 16 16 16 16 16
21 20 20 20 20 20 19 19 19 19 19 19 18 18 18 18 18 18 18 18 18 18 18 18 18 17 17 18 18 18 17 17 18 18 18 18 17 17 16 16 16 16 16
21 21 20 20 20 20 20 19 19 19 19 19 18 18 18 18 18 18 18 18 18 18 18 18 17 17 17 17 17 18 18 18 18 18 18 18 17 17 16 16 16 16 16
Wind_Speed
5 7 8 6 6 7 7 7 8 9 10 11 12 13 15 15 15 15 16 16 17 17 17 18 17 17 16 15 15 14 14 14 14 14 14 14 13 12 11 11 10 11 12
5 7 8 6 7 7 8 8 8 9 10 11 12 13 14 15 15 15 16 16 16 17 17 17 16 16 16 15 15 15 14 14 13 13 14 13 12 11 10 7 6 10 11
6 7 9 7 7 8 8 8 9 9 10 11 12 12 13 14 14 15 16 16 16 16 17 16 15 15 15 15 14 14 13 13 12 12 12 11 12 11 10 9 9 10 10
6 8 9 8 8 8 8 8 9 9 10 11 11 12 12 13 14 14 15 15 15 15 16 15 15 15 14 14 13 13 12 11 11 10 8 9 10 11 10 9 9 9 10
7 9 10 7 8 8 8 8 8 9 10 11 11 12 12 13 13 13 13 14 14 14 14 14 14 14 13 13 12 12 11 10 8 6 7 7 8 10 9 9 8 8 9
7 9 11 8 9 9 9 9 10 10 11 11 12 12 12 13 13 13 12 12 13 13 13 13 14 13 13 12 12 11 10 9 7 7 7 7 8 9 8 8 8 8 8
7 9 11 11 10 10 10 11 11 11 11 11 12 12 12 12 12 12 12 11 12 13 13 13 13 13 12 11 11 10 9 6 4 6 6 7 8 9 7 7 7 7 8
7 8 10 11 11 11 11 11 12 11 11 11 11 12 12 12 11 11 11 11 11 12 12 12 12 11 10 10 9 9 8 5 6 5 5 6 9 8 7 6 6 6 7
7 7 8 9 10 11 11 12 12 12 11 11 11 11 11 11 11 11 10 10 11 11 11 11 11 10 9 9 9 8 6 3 3 4 5 6 9 7 6 5 5 6 7
6 7 7 7 8 8 11 12 12 11 10 10 10 10 10 10 11 10 11 11 10 10 10 10 10 9 9 8 8 7 7 6 3 4 4 7 8 7 6 5 5 5 6
6 6 6 7 7 7 9 11 10 11 10 9 11 9 7 7 8 9 10 10 10 9 9 9 9 9 9 9 8 8 7 4 3 3 3 8 7 6 5 5 5 5 5
7 6 6 6 6 7 7 8 6 7 8 7 7 6 6 6 6 7 11 10 10 9 9 9 9 9 8 7 8 8 4 4 3 3 4 8 6 5 5 5 5 5 5
7 6 6 6 6 6 5 5 5 5 6 6 7 6 5 5 5 6 7 9 9 9 7 8 8 5 4 3 3 4 3 2 2 3 5 7 5 5 4 4 5 5 6
7 6 6 6 6 5 4 4 4 4 4 4 5 4 4 3 3 4 4 5 5 5 5 4 3 4 4 4 3 3 2 1 2 2 5 6 4 4 4 4 5 5 6
7 6 6 5 5 4 3 2 4 4 4 5 4 4 3 3 3 3 3 3 3 4 4 4 3 4 3 3 3 3 2 1 1 2 4 6 5 3 3 3 4 4 4
6 6 5 4 5 4 3 3 3 3 3 3 3 4 2 2 2 2 3 3 3 3 3 3 4 3 2 2 2 2 1 2 1 1 2 6 6 4 3 3 3 3 3
7 6 5 5 5 4 3 3 3 3 3 3 3 3 1 2 2 1 2 2 3 3 4 3 4 3 3 3 2 2 2 2 2 2 1 2 4 6 5 3 3 3 3
7 6 5 5 6 5 3 2 2 2 2 2 2 2 2 2 2 1 1 2 3 3 3 3 2 2 2 2 2 2 2 2 2 2 3 2 1 2 5 5 4 3 3
7 7 6 5 5 5 4 3 2 2 1 1 2 2 2 1 1 1 1 2 2 2 2 2 2 2 2 2 3 3 2 2 2 3 2 2 2 1 2 5 6 5 3
8 7 6 6 5 5 5 4 2 2 2 2 2 2 1 2 1 1 2 1 1 2 2 1 2 1 2 2 2 1 2 2 2 2 3 3 3 2 2 1 4 5 5
8 8 7 6 6 5 4 4 3 3 3 2 2 2 2 1 2 1 1 2 1 1 1 2 2 3 2 2 2 2 3 3 2 2 2 2 2 2 1 1 2 1 4
10 9 8 8 7 6 5 4 3 2 2 2 2 2 2 2 2 2 1 2 1 1 2 2 2 2 2 2 2 2 2 3 3 2 2 2 2 1 1 2 1 0 1
10 10 8 8 8 7 6 5 4 3 3 3 3 3 2 2 2 1 1 1 1 2 1 2 2 3 2 2 2 2 2 1 1 3 2 2 2 1 1 1 1 1 1
11 10 9 8 8 7 7 6 6 5 4 3 3 2 2 2 2 2 2 2 2 1 1 3 2 3 3 2 2 2 2 2 2 1 3 3 2 2 2 2 2 2 2
11 10 10 9 9 8 8 7 7 6 4 4 3 3 3 2 2 2 3 2 2 2 1 2 1 3 2 3 2 2 2 3 4 3 2 2 2 2 2 2 2 2 2
11 10 10 10 9 9 9 8 8 6 5 4 4 4 4 3 2 2 3 2 2 2 2 2 3 3 2 2 3 3 3 2 2 3 3 3 2 2 2 2 2 2 3
Wind_Direction
65 78 88 91 98 98 95 94 95 97 103 107 111 113 114 116 117 120 125 126 125 125 125 125 126 128 128 127 126 125 126 125 126 128 128 128 129 129 132 138 146 126 122
75 89 94 89 93 97 101 99 99 99 104 109 111 114 117 120 121 120 121 123 123 124 125 126 126 127 129 129 129 128 128 128 128 131 132 133 133 134 137 136 115 115 126
77 91 96 88 92 99 104 103 101 101 104 108 111 114 118 120 122 122 123 125 125 125 126 127 128 130 131 131 130 128 128 129 131 139 152 143 134 138 137 130 124 132 134
82 86 87 88 90 98 101 103 104 107 108 110 112 116 119 120 121 122 125 126 127 127 128 128 129 130 130 130 129 127 127 129 138 162 155 134 135 135 142 140 142 145 143
81 86 89 92 95 99 100 100 101 106 110 112 114 119 121 122 122 123 124 127 129 130 132 130 130 130 130 128 127 127 128 131 149 172 127 127 127 133 143 150 152 152 150
83 83 89 85 95 102 101 100 102 103 108 112 116 121 125 124 125 125 124 125 130 132 133 133 131 131 131 131 131 131 134 144 168 135 125 126 126 136 144 150 155 158 155
83 84 89 87 94 98 96 99 102 105 108 112 116 120 124 124 126 126 126 127 131 133 132 130 131 133 136 139 139 138 141 161 146 123 124 123 118 129 143 146 152 157 159
90 93 97 96 94 93 93 97 100 103 105 108 114 118 120 124 126 126 127 130 132 133 133 133 133 136 140 140 138 138 149 183 150 131 128 121 120 136 144 149 155 159 169
91 95 97 106 108 105 94 93 96 96 99 105 111 116 118 121 125 127 128 130 132 133 135 135 137 141 141 140 140 142 155 201 173 139 135 126 132 150 155 161 168 169 173
91 94 99 100 101 107 105 98 98 99 101 109 114 116 124 134 131 132 135 132 134 136 136 140 144 144 141 144 149 153 174 204 170 145 139 129 142 160 164 171 180 182 187
98 96 97 99 102 103 99 103 108 110 107 120 117 121 135 126 125 130 119 132 134 135 138 143 147 150 153 150 155 170 187 182 139 136 128 124 151 165 171 179 187 189 194
109 105 102 100 99 101 98 103 102 102 102 98 98 109 111 107 108 111 125 136 138 140 144 149 158 168 180 156 159 182 173 160 155 156 134 137 165 177 181 191 194 196 200
118 113 111 104 97 95 100 98 92 93 98 99 94 99 103 111 114 112 125 139 145 152 146 149 166 161 151 143 153 155 160 172 164 152 133 146 174 188 193 194 196 204 208
123 119 110 109 104 95 88 93 101 98 97 96 98 97 107 101 98 101 118 123 137 136 133 138 135 138 138 145 143 139 149 179 168 149 131 146 175 195 199 197 206 211 212
134 130 120 113 111 108 103 97 97 97 96 100 99 97 93 112 107 112 114 130 133 127 140 141 133 132 143 151 144 135 137 132 160 165 140 149 171 197 207 205 211 213 209
146 143 135 138 132 127 125 110 102 106 107 101 106 102 102 103 103 121 131 133 133 133 119 133 138 139 140 127 136 137 175 164 144 208 157 152 164 184 205 211 211 210 212
153 152 152 154 144 142 138 129 124 121 114 107 105 109 121 116 114 137 119 145 135 140 145 148 145 146 153 155 155 162 175 178 172 189 201 190 169 176 182 191 206 220 219
158 158 162 156 148 150 145 142 126 110 113 122 125 126 127 120 144 173 142 141 151 159 150 150 168 158 153 163 157 175 172 165 178 186 191 189 196 171 165 172 186 198 208
167 167 167 163 161 158 153 159 156 145 138 139 134 134 131 144 151 191 143 112 176 159 153 178 147 169 169 188 181 178 186 185 185 186 182 181 172 194 190 158 170 175 181
175 176 176 174 170 172 170 172 177 169 171 167 154 134 154 154 150 199 151 150 198 157 151 143 153 168 199 208 214 171 188 186 191 183 207 190 184 198 223 203 181 175 180
182 183 186 187 177 182 183 191 183 180 185 178 173 160 178 175 159 197 150 154 215 152 191 193 187 182 204 205 204 194 196 198 195 196 213 220 192 195 195 213 230 222 175
187 188 189 192 188 190 182 192 191 188 189 179 176 163 191 187 193 180 187 211 197 184 200 205 205 228 198 197 241 241 212 187 191 193 196 202 225 219 204 200 177 180 283
193 195 194 194 193 196 190 189 182 182 199 186 187 185 192 193 196 207 206 240 243 244 202 226 221 225 218 206 230 266 276 272 167 168 193 195 216 243 236 201 199 195 238
194 192 195 192 195 196 197 201 201 197 197 199 200 187 188 194 204 207 216 233 254 251 223 241 213 242 239 225 207 239 273 306 284 226 186 169 187 218 242 247 218 192 216
192 191 191 189 193 196 201 201 209 209 205 201 196 181 205 202 212 220 219 230 246 254 250 260 251 258 240 250 246 234 226 230 243 263 254 225 206 212 212 223 232 220 213
191 193 191 188 194 197 202 205 211 211 214 214 213 203 210 201 208 210 216 230 241 255 244 247 249 238 252 266 270 260 248 244 245 248 256 254 246 229 223 226 233 230 227
Height
1517 1515 1513 1512 1511 1511 1512 1512 1512 1512 1513 1513 1513 1514 1515 1517 1518 1520 1522 1524 1526 1527 1529 1531 1533 1535 1537 1539 1541 1543 1545 1546 1547 1549 1550 1551 1552 1554 1555 1556 1557 1558 1558
1518 1516 1514 1513 1512 1512 1513 1513 1514 1514 1515 1515 1516 1517 1518 1519 1521 1523 1525 1526 1528 1530 1532 1534 1536 1537 1539 1541 1543 1545 1546 1547 1549 1550 1551 1552 1554 1555 1556 1557 1558 1559 1559
1518 1518 1516 1514 1514 1514 1514 1515 1516 1516 1517 1517 1518 1519 1520 1522 1524 1526 1527 1529 1531 1532 1534 1536 1538 1539 1541 1543 1545 1546 1548 1549 1550 1551 1553 1555 1555 1556 1557 1558 1558 1559 1560
1520 1519 1517 1516 1515 1516 1516 1516 1516 1517 1518 1519 1520 1521 1522 1524 1526 1528 1530 1531 1533 1534 1536 1538 1539 1541 1543 1545 1547 1548 1549 1550 1552 1553 1556 1557 1557 1557 1558 1558 1559 1560 1560
1521 1520 1518 1516 1516 1517 1517 1517 1517 1518 1519 1520 1521 1523 1524 1526 1528 1530 1532 1533 1535 1537 1538 1539 1541 1542 1545 1546 1548 1550 1551 1552 1553 1555 1557 1558 1558 1558 1558 1559 1560 1560 1561
1523 1522 1519 1516 1515 1517 1518 1517 1518 1518 1519 1521 1523 1525 1526 1528 1530 1532 1534 1535 1537 1538 1539 1541 1542 1544 1546 1548 1550 1551 1552 1553 1555 1557 1558 1558 1558 1558 1559 1560 1560 1561 1561
1525 1524 1521 1518 1518 1519 1519 1519 1520 1520 1521 1523 1525 1527 1528 1530 1532 1534 1535 1537 1538 1540 1541 1543 1544 1546 1548 1550 1551 1552 1553 1555 1557 1558 1558 1559 1559 1559 1560 1560 1561 1561 1562
1527 1526 1524 1523 1522 1522 1522 1522 1522 1523 1524 1525 1527 1528 1530 1532 1533 1535 1537 1539 1540 1541 1543 1544 1546 1547 1549 1550 1552 1553 1554 1556 1558 1559 1560 1560 1559 1559 1560 1561 1561 1561 1562
1529 1528 1528 1528 1527 1526 1525 1525 1525 1526 1526 1528 1529 1531 1532 1533 1535 1537 1538 1540 1542 1543 1545 1546 1547 1549 1550 1552 1553 1554 1555 1556 1559 1560 1560 1560 1560 1560 1561 1561 1561 1561 1561
1530 1531 1530 1531 1530 1530 1529 1528 1528 1529 1529 1530 1531 1533 1534 1535 1537 1538 1540 1541 1543 1544 1546 1547 1548 1550 1551 1552 1554 1555 1556 1557 1560 1560 1561 1560 1560 1560 1561 1561 1561 1561 1561
1532 1533 1533 1533 1533 1533 1533 1532 1532 1532 1532 1533 1534 1535 1537 1538 1539 1540 1540 1542 1544 1546 1547 1548 1550 1551 1552 1553 1554 1555 1557 1559 1560 1560 1561 1560 1560 1560 1560 1561 1561 1560 1560
1534 1535 1535 1535 1536 1536 1536 1536 1536 1537 1537 1537 1538 1539 1539 1539 1540 1540 1539 1542 1545 1547 1548 1549 1551 1552 1554 1555 1556 1556 1558 1559 1560 1560 1560 1559 1560 1560 1560 1560 1560 1560 1559
1536 1537 1537 1537 1537 1538 1538 1539 1539 1540 1539 1540 1540 1540 1541 1541 1541 1541 1541 1544 1546 1548 1550 1551 1552 1554 1555 1556 1557 1558 1558 1560 1560 1560 1559 1559 1559 1560 1560 1560 1560 1559 1559
1538 1538 1539 1539 1539 1539 1540 1541 1541 1542 1542 1543 1542 1543 1544 1544 1543 1543 1543 1545 1548 1549 1550 1552 1553 1554 1555 1556 1556 1557 1558 1559 1560 1560 1559 1558 1559 1559 1559 1559 1559 1559 1559
1539 1540 1540 1540 1540 1541 1541 1542 1543 1544 1544 1544 1544 1545 1545 1546 1545 1546 1546 1547 1549 1550 1551 1552 1553 1554 1555 1556 1557 1557 1558 1558 1559 1560 1559 1558 1558 1558 1559 1558 1558 1558 1558
1540 1541 1541 1541 1542 1542 1543 1544 1544 1546 1545 1546 1546 1546 1546 1547 1546 1547 1547 1547 1549 1550 1552 1552 1554 1554 1555 1556 1556 1557 1557 1558 1558 1559 1559 1558 1558 1558 1558 1557 1557 1557 1557
1540 1541 1541 1542 1543 1543 1544 1545 1546 1547 1547 1548 1547 1547 1547 1548 1547 1547 1548 1548 1549 1550 1551 1553 1554 1555 1555 1556 1556 1557 1557 1557 1558 1558 1558 1559 1558 1557 1557 1557 1556 1556 1556
1540 1541 1542 1544 1544 1544 1545 1545 1547 1548 1548 1548 1548 1548 1548 1548 1548 1548 1548 1548 1549 1551 1552 1552 1554 1554 1555 1556 1556 1556 1557 1556 1557 1557 1557 1557 1557 1558 1557 1556 1555 1555 1555
1540 1541 1542 1543 1544 1545 1546 1546 1547 1547 1548 1548 1549 1549 1548 1548 1548 1549 1549 1549 1549 1551 1552 1553 1553 1554 1554 1555 1556 1556 1556 1556 1556 1556 1556 1556 1556 1556 1556 1555 1554 1554 1553
1539 1540 1542 1543 1543 1545 1546 1546 1547 1548 1548 1549 1549 1548 1548 1549 1549 1549 1549 1549 1550 1551 1551 1552 1552 1552 1553 1554 1555 1555 1555 1555 1555 1555 1555 1555 1555 1555 1555 1555 1554 1553 1552
1538 1539 1541 1542 1543 1544 1545 1546 1547 1548 1548 1549 1549 1549 1549 1549 1549 1549 1550 1549 1550 1550 1550 1551 1552 1552 1553 1553 1554 1554 1554 1554 1554 1554 1554 1554 1554 1554 1553 1553 1553 1553 1552
1537 1538 1539 1541 1542 1543 1544 1545 1546 1547 1548 1548 1548 1548 1548 1548 1549 1549 1549 1550 1550 1550 1550 1550 1550 1551 1552 1552 1553 1553 1553 1554 1553 1553 1553 1553 1553 1553 1552 1552 1551 1550 1550
1535 1537 1539 1539 1541 1542 1543 1545 1546 1546 1547 1548 1548 1548 1548 1548 1548 1548 1548 1549 1549 1550 1550 1549 1550 1550 1551 1551 1551 1552 1552 1551 1552 1552 1552 1551 1551 1551 1551 1551 1550 1549 1549
1533 1535 1537 1538 1539 1541 1542 1544 1545 1545 1546 1546 1547 1547 1548 1548 1548 1548 1548 1548 1548 1549 1548 1548 1549 1549 1549 1550 1550 1550 1550 1550 1551 1551 1551 1550 1550 1549 1549 1549 1549 1548 1547
1531 1533 1534 1536 1537 1539 1540 1541 1543 1544 1545 1546 1546 1546 1546 1547 1547 1547 1547 1547 1547 1547 1547 1547 1547 1547 1548 1549 1549 1549 1549 1549 1549 1549 1549 1549 1549 1548 1548 1547 1547 1547 1546
1529 1531 1533 1533 1535 1537 1538 1540 1540 1542 1543 1544 1544 1545 1545 1546 1546 1546 1545 1545 1545 1546 1545 1545 1546 1546 1546 1546 1547 1547 1548 1547 1547 1547 1547 1547 1547 1547 1546 1546 1545 1545 1544